This is the latest recevied weather packets stored in our database for station/object XW7RMR. If no packets are shown the sender has not sent any weather packets the latest 10 day(s).
| Time | Temp. | Humidity | Pressure | Rain* | Wind** | Luminosity | Snow |
|---|---|---|---|---|---|---|---|
| 1777601710 | 25.56° C | 34% | 1012.2 hPa | 0 mm | - | 41 W/m² | - |
| 1777601406 | 25.56° C | 34% | 1012.2 hPa | 0 mm | - | 48 W/m² | - |
| 1777601102 | 25.56° C | 34% | 1012.2 hPa | 0 mm | - | 58 W/m² | - |
| 1777600800 | 26.11° C | 33% | 1012.3 hPa | 0 mm | - | 64 W/m² | - |
| 1777600495 | 26.11° C | 32% | 1012.3 hPa | 0 mm | - | 79 W/m² | - |
| 1777600190 | 26.11° C | 33% | 1012.3 hPa | 0 mm | - | 62 W/m² | - |
| 1777599887 | 26.11° C | 32% | 1012.5 hPa | 0 mm | - | 65 W/m² | - |
| 1777599583 | 26.67° C | 32% | 1012.7 hPa | 0 mm | - | 68 W/m² | - |
| 1777599281 | 26.67° C | 31% | 1012.6 hPa | 0 mm | - | 111 W/m² | - |
| 1777598976 | 27.22° C | 30% | 1012.5 hPa | 0 mm | - | 148 W/m² | - |
| 1777598674 | 27.22° C | 30% | 1012.7 hPa | 0 mm | - | 179 W/m² | - |
| 1777598369 | 27.22° C | 29% | 1012.7 hPa | 0 mm | - | 188 W/m² | - |
| 1777598068 | 27.22° C | 29% | 1012.6 hPa | 0 mm | - | 157 W/m² | - |
| 1777597767 | 27.22° C | 29% | 1012.6 hPa | 0 mm | - | 225 W/m² | - |
| 1777597462 | 27.22° C | 31% | 1012.8 hPa | 0 mm | - | 239 W/m² | - |
| 1777597159 | 27.22° C | 30% | 1012.8 hPa | 0 mm | - | 245 W/m² | - |
| 1777596855 | 27.22° C | 29% | 1012.9 hPa | 0 mm | - | 254 W/m² | - |
| 1777596550 | 27.22° C | 30% | 1012.9 hPa | 0 mm | - | 270 W/m² | - |
| 1777596248 | 27.22° C | 29% | 1012.6 hPa | 0 mm | - | 283 W/m² | - |
| 1777595945 | 27.78° C | 29% | 1012.8 hPa | 0 mm | - | 299 W/m² | - |
| 1777595645 | 27.78° C | 30% | 1012.9 hPa | 0 mm | - | 301 W/m² | - |
| 1777595341 | 27.22° C | 30% | 1012.9 hPa | 0 mm | - | 334 W/m² | - |
| 1777595037 | 27.78° C | 30% | 1013 hPa | 0 mm | - | 358 W/m² | - |
| 1777594734 | 28.33° C | 29% | 1013.1 hPa | 0 mm | - | 373 W/m² | - |
| 1777594431 | 27.78° C | 29% | 1013.1 hPa | 0 mm | - | 390 W/m² | - |
* Rain latest hour (hover to see other rain measurements)
** Current wind speed in m/s (hover to see current wind gust speed)